Regional Weather Roundup
Issued by NWS

Home | Current Version | Previous Version | Graphics & Text | Print | Product List | Glossary On
Versions: 1 2 3 4 5 6 7 8 9 10 11 12 13 14 15 16 17 18 19 20 21 22 23 24 25 26 27 28 29 30 31 32 33 34 35 36 37 38 39 40 41 42 43 44 45 46 47 48 49 50
000
ASUS45 KABQ 181610
RWRNM
NEW MEXICO REGIONAL WEATHER ROUNDUP
NATIONAL WEATHER SERVICE ALBUQUERQUE NM
900 AM MST WED JAN 18 2017

NOTE: "FAIR" MEANS FEW OR NO CLOUDS BELOW 12,000 FEET AGL WITH NO
       SIGNIFICANT WEATHER OR OBSTRUCTIONS TO VISION.

      THIS PRODUCT IS RELEASED AS TWO VERSIONS.  ONE VERSION NEAR
      THE TOP OF THE HOUR CONTAINING PRELIMINARY DATA FROM ALBUQUERQUE
      AND OTHER STATIONS.  A FINAL VERSION WITH ADDITIONAL DATA IS
      ISSUED ABOUT 10 MINUTES AFTER THE HOUR.

NMZ501-503-504-510>518-181700-
NORTHWEST PLATEAU/NORTHCENTRAL MOUNTAINS

CITY           SKY/WX    TMP DP  RH WIND       PRES   REMARKS
FARMINGTON     FOG       29  28  96 SE3       30.13R VSB 1/4
LOS ALAMOS     FAIR      32  29  88 CALM      30.10S
SANTA FE       FAIR      31  29  92 W3        30.08S
TAOS           CLOUDY    28  19  69 N8        30.10R WCI  20
ANGEL FIRE     CLOUDY    14  12  92 CALM      30.07S

$$
NMZ402-403-502-505>509-181700-
WESTCENTRAL MOUNTAINS/SOUTHWEST MOUNTAINS

CITY           SKY/WX    TMP DP  RH WIND       PRES   REMARKS
GALLUP         FOG       29  27  92 NE3       30.15S VSB 1/2
GRANTS         CLOUDY    33  32  96 N3        30.15S
SILVER CITY    FAIR      39  36  89 N3        30.16S

$$
NMZ407-409-411-412-181700-
SOUTHERN DESERTS

CITY           SKY/WX    TMP DP  RH WIND       PRES   REMARKS
DEMING         FAIR      36  34  92 CALM      30.17R
LAS CRUCES     FOG       38  38  99 W3        30.18R VSB 1/2
HOLLOMAN AFB   FOG       34  34 100 S6        30.20R VSB<1/4 WCI  29
ALAMOGORDO     FOG       37  37 100 S5        30.17R VSB<1/4 WCI  34
T OR C         FOG       36  35  96 S3        30.14R VSB<1/4

$$
NMZ519>523-181700-
CENTRAL VALLEYS/CENTRAL HIGHLANDS

CITY           SKY/WX    TMP DP  RH WIND       PRES   REMARKS
ALBUQUERQUE    LGT RAIN  37  35  92 CALM      30.13R
DOUBLE EAGLE   CLOUDY    36  34  93 CALM      30.12S
MORIARTY ARPT  FAIR      37  32  82 W9        30.10S WCI  30
CLINES CORNERS FAIR      32  28  85 W23       30.06S WCI  19
BELEN          FOG       35  35 100 SE6       30.14R VSB 1/4 WCI  30
SOCORRO        CLOUDY    37  36  97 S6        30.15S WCI  32

$$
NMZ524>526-539-540-181700-
SOUTHCENTRAL MOUNTAINS

CITY           SKY/WX    TMP DP  RH WIND       PRES   REMARKS
RUIDOSO        FAIR      32  32 100 NW6       30.14R FOG     WCI  26

$$
NMZ527>531-181700-
NORTHEAST HIGHLANDS/NORTHEAST PLAINS

CITY           SKY/WX    TMP DP  RH WIND       PRES   REMARKS
LAS VEGAS      FAIR      23  19  85 NW6       30.00S WCI  16
RATON          CLOUDY    28  25  88 CALM      29.96F
CLAYTON        FAIR      39  33  79 SW7       29.94F WCI  34

$$
NMZ532>537-181700-
EASTCENTRAL PLAINS

CITY           SKY/WX    TMP DP  RH WIND       PRES   REMARKS
TUCUMCARI      FAIR      42  37  82 SW13      30.01R
CANNON AFB     CLOUDY    39  39 100 SW12      30.07S FOG     WCI  32
CLOVIS AIRPORT CLOUDY    39  37  93 SW17      30.07S WCI  30

$$
NMZ028-029-538-181700-
SOUTHEAST PLAINS

CITY           SKY/WX    TMP DP  RH WIND       PRES   REMARKS
ROSWELL        FOG       41  39  93 S7        30.10S VSB 3/4
ARTESIA        FOG       39  39 100 S6        30.12S VSB<1/4 WCI  35
CARLSBAD       FAIR      44  42  93 CALM      30.12S
HOBBS          PTSUNNY   41  41 100 SW6       30.14R FOG


$$



USA.gov is the U.S. government's official web portal to all federal, state and local government web resources and services.